| time (UTC) | temp F | wind direction | speed knots | gust knots | rain 1hr in | rain 24hr in | rain mn in | humidity % | barometer mb |
| 20260504081516 | 43 | 307 | 0.0 | 0.0 | 0.00 | 0.00 | 0.00 | 85 | 1016.6 |
| 20260504060107 | 38 | 330 | 0.0 | 0.0 | 0.00 | 0.00 | 0.00 | 89 | 1017.0 |
| 20260504044552 | 38 | 330 | 0.0 | 0.0 | 0.00 | 0.00 | 0.00 | 87 | 1017.4 |
| 20260504043050 | 38 | 330 | 0.0 | 0.9 | 0.00 | 0.00 | 0.00 | 87 | 1017.4 |
| 20260504041547 | 39 | 330 | 0.0 | 0.0 | 0.00 | 0.00 | 0.00 | 86 | 1017.3 |
| 20260504040047 | 39 | 330 | 0.0 | 0.0 | 0.00 | 0.00 | 0.00 | 86 | 1017.3 |
| 20260504034542 | 40 | 330 | 0.0 | 0.0 | 0.00 | 0.00 | 0.00 | 85 | 1017.1 |
| 20260504033050 | 40 | 330 | 0.0 | 0.0 | 0.00 | 0.00 | 0.00 | 84 | 1017.0 |
| 20260504031542 | 40 | 330 | 0.0 | 0.0 | 0.00 | 0.00 | 0.00 | 84 | 1016.8 |
| 20260504030039 | 41 | 330 | 0.0 | 0.0 | 0.00 | 0.00 | 0.00 | 82 | 1016.8 |
| 20260504024549 | 42 | 330 | 0.0 | 0.0 | 0.00 | 0.00 | 0.00 | 82 | 1016.7 |
| 20260504023037 | 43 | 330 | 0.0 | 0.0 | 0.00 | 0.00 | 0.00 | 76 | 1016.7 |
| 20260504021547 | 43 | 330 | 0.0 | 0.0 | 0.00 | 0.00 | 0.00 | 73 | 1016.5 |
| 20260504020036 | 44 | 330 | 0.0 | 0.9 | 0.00 | 0.00 | 0.00 | 79 | 1016.4 |
| 20260504014536 | 46 | 330 | 0.0 | 0.9 | 0.00 | 0.00 | 0.00 | 66 | 1016.4 |
| 20260504013044 | 46 | 305 | 0.0 | 1.7 | 0.00 | 0.00 | 0.00 | 74 | 1016.4 |
| 20260504011534 | 48 | 306 | 0.0 | 0.9 | 0.00 | 0.00 | 0.00 | 69 | 1016.2 |
| 20260504010033 | 50 | 258 | 0.0 | 0.0 | 0.00 | 0.00 | 0.00 | 56 | 1016.1 |
| 20260504004542 | 52 | 258 | 0.0 | 0.0 | 0.00 | 0.00 | 0.00 | 53 | 1016.0 |
| 20260504003033 | 54 | 258 | 0.0 | 0.0 | 0.00 | 0.00 | 0.00 | 46 | 1015.9 |
| 20260504001534 | 55 | 259 | 0.0 | 0.9 | 0.00 | 0.00 | 0.00 | 44 | 1015.9 |
| 20260504000032 | 56 | 291 | 0.0 | 0.9 | 0.00 | 0.00 | 0.00 | 42 | 1015.9 |
| 20260503234531 | 58 | 314 | 0.0 | 0.0 | 0.00 | 0.00 | 0.00 | 40 | 1015.7 |
| 20260503233033 | 58 | 309 | 0.9 | 2.6 | 0.00 | 0.00 | 0.00 | 43 | 1015.7 |
| 20260503231530 | 60 | 316 | 2.6 | 3.5 | 0.00 | 0.00 | 0.00 | 40 | 1015.6 |
| 20260503230030 | 60 | 333 | 4.3 | 6.1 | 0.00 | 0.00 | 0.00 | 41 | 1015.5 |
| 20260503224529 | 61 | 220 | 0.9 | 5.2 | 0.00 | 0.00 | 0.00 | 37 | 1015.4 |
| 20260503223029 | 61 | 320 | 1.7 | 5.2 | 0.00 | 0.00 | 0.00 | 38 | 1015.4 |
| 20260503221528 | 61 | 330 | 3.5 | 7.8 | 0.00 | 0.00 | 0.00 | 36 | 1015.5 |
| 20260503220030 | 61 | 318 | 2.6 | 9.6 | 0.00 | 0.00 | 0.00 | 36 | 1015.5 |
| 20260503214526 | 61 | 321 | 5.2 | 8.7 | 0.00 | 0.00 | 0.00 | 37 | 1015.6 |
| 20260503213029 | 61 | 313 | 4.3 | 7.8 | 0.00 | 0.00 | 0.00 | 34 | 1015.6 |
| 20260503211535 | 62 | 316 | 2.6 | 7.8 | 0.00 | 0.00 | 0.00 | 36 | 1015.7 |
| 20260503210025 | 62 | 314 | 3.5 | 8.7 | 0.00 | 0.00 | 0.00 | 36 | 1015.6 |
| 20260503204524 | 62 | 261 | 1.7 | 7.0 | 0.00 | 0.00 | 0.00 | 35 | 1015.6 |
| 20260503203023 | 61 | 325 | 1.7 | 7.0 | 0.00 | 0.00 | 0.00 | 39 | 1015.8 |
| 20260503201521 | 62 | 317 | 4.3 | 8.7 | 0.00 | 0.00 | 0.00 | 35 | 1015.7 |
| 20260503200019 | 62 | 163 | 2.6 | 9.6 | 0.00 | 0.00 | 0.00 | 37 | 1016.1 |
| 20260503194517 | 61 | 357 | 2.6 | 7.8 | 0.00 | 0.00 | 0.00 | 38 | 1016.3 |
| 20260503193031 | 60 | 346 | 4.3 | 9.6 | 0.00 | 0.00 | 0.00 | 36 | 1016.5 |
| 20260503191515 | 60 | 333 | 2.6 | 9.6 | 0.00 | 0.00 | 0.00 | 36 | 1016.9 |
| 20260503190024 | 59 | 326 | 2.6 | 10.4 | 0.00 | 0.00 | 0.00 | 40 | 1017.0 |
| 20260503184516 | 59 | 321 | 7.8 | 12.2 | 0.00 | 0.00 | 0.00 | 38 | 1017.2 |
| 20260503183010 | 59 | 103 | 0.9 | 8.7 | 0.00 | 0.00 | 0.00 | 43 | 1017.3 |
| 20260503181508 | 58 | 329 | 1.7 | 7.8 | 0.00 | 0.00 | 0.00 | 41 | 1017.4 |
| 20260503180008 | 58 | 322 | 2.6 | 8.7 | 0.00 | 0.00 | 0.00 | 43 | 1017.5 |
| 20260503174506 | 57 | 313 | 7.0 | 12.2 | 0.00 | 0.00 | 0.00 | 42 | 1017.6 |
| 20260503173016 | 56 | 317 | 5.2 | 13.9 | 0.00 | 0.00 | 0.00 | 41 | 1017.7 |
| 20260503171503 | 55 | 313 | 1.7 | 9.6 | 0.00 | 0.00 | 0.00 | 51 | 1017.8 |